| time (UTC) | temp F | wind direction | speed MPH | gust MPH | rain 1hr in | rain 24hr in | rain mn in | humidity % | barometer mb |
| 20260903030003 | 61 | 142 | 0.0 | 3.0 | 0.00 | 0.01 | 0.01 | 95 | 1020.1 |
| 20260903024503 | 61 | 96 | 0.0 | 4.0 | 0.00 | 0.01 | 0.01 | 95 | 1020.1 |
| 20260903023003 | 61 | 144 | 0.0 | 5.0 | 0.00 | 0.01 | 0.01 | 95 | 1020.1 |
| 20260903021502 | 61 | 325 | 0.0 | 3.0 | 0.00 | 0.01 | 0.01 | 95 | 1020.1 |
| 20260903020002 | 61 | 122 | 1.0 | 8.0 | 0.00 | 0.01 | 0.01 | 94 | 1020.4 |
| 20260903014500 | 61 | 166 | 1.0 | 5.0 | 0.00 | 0.01 | 0.01 | 94 | 1020.6 |
| 20260903013100 | 61 | 114 | 0.0 | 6.0 | 0.00 | 0.01 | 0.01 | 94 | 1020.5 |
| 20260903011600 | 61 | 314 | 0.0 | 5.0 | 0.00 | 0.01 | 0.01 | 94 | 1020.6 |
| 20260903010059 | 61 | 125 | 0.0 | 7.0 | 0.00 | 0.01 | 0.01 | 93 | 1020.0 |
| 20260903004600 | 62 | 128 | 0.0 | 5.0 | 0.00 | 0.01 | 0.01 | 93 | 1020.0 |
| 20260903003058 | 62 | 106 | 0.0 | 5.0 | 0.00 | 0.01 | 0.01 | 92 | 1020.1 |
| 20260903001604 | 62 | 88 | 0.0 | 4.0 | 0.00 | 0.01 | 0.01 | 91 | 1019.8 |
| 20260903000056 | 62 | 110 | 0.0 | 2.0 | 0.00 | 0.01 | 0.01 | 90 | 1020.3 |
| 20260902234552 | 63 | 8 | 0.0 | 1.0 | 0.00 | 0.01 | 0.01 | 88 | 1020.5 |
| 20260902233052 | 63 | 128 | 0.0 | 5.0 | 0.00 | 0.01 | 0.01 | 88 | 1020.6 |
| 20260902231552 | 63 | 138 | 0.0 | 2.0 | 0.00 | 0.01 | 0.01 | 87 | 1021.1 |
| 20260902230051 | 63 | 13 | 0.0 | 4.0 | 0.00 | 0.01 | 0.01 | 86 | 1021.2 |
| 20260902224556 | 64 | 307 | 0.0 | 0.0 | 0.00 | 0.01 | 0.01 | 85 | 1021.3 |
| 20260902223053 | 64 | 173 | 0.0 | 2.0 | 0.00 | 0.01 | 0.01 | 84 | 1021.4 |
| 20260902221553 | 65 | 345 | 0.0 | 2.0 | 0.00 | 0.01 | 0.01 | 84 | 1021.4 |
| 20260902220055 | 65 | 97 | 0.0 | 5.0 | 0.00 | 0.01 | 0.01 | 82 | 1021.4 |
| 20260902214548 | 66 | 139 | 0.0 | 1.0 | 0.00 | 0.01 | 0.01 | 82 | 1021.4 |
| 20260902213050 | 66 | 319 | 0.0 | 2.0 | 0.00 | 0.01 | 0.01 | 82 | 1021.6 |
| 20260902211548 | 66 | 315 | 0.0 | 1.0 | 0.00 | 0.01 | 0.01 | 81 | 1021.5 |
| 20260902210050 | 67 | 228 | 0.0 | 3.0 | 0.00 | 0.01 | 0.01 | 80 | 1021.6 |
| 20260902204547 | 68 | 108 | 0.0 | 6.0 | 0.00 | 0.01 | 0.01 | 78 | 1021.5 |
| 20260902203047 | 68 | 174 | 2.0 | 6.0 | 0.00 | 0.01 | 0.01 | 78 | 1021.5 |
| 20260902201544 | 68 | 112 | 1.0 | 5.0 | 0.00 | 0.01 | 0.01 | 78 | 1021.6 |
| 20260902200043 | 67 | 131 | 0.0 | 6.0 | 0.00 | 0.01 | 0.01 | 79 | 1021.9 |
| 20260902194545 | 67 | 91 | 0.0 | 4.0 | 0.00 | 0.01 | 0.01 | 81 | 1021.9 |
| 20260902193042 | 67 | 100 | 0.0 | 2.0 | 0.00 | 0.01 | 0.01 | 81 | 1022.2 |
| 20260902191553 | 66 | 138 | 0.0 | 5.0 | 0.00 | 0.01 | 0.01 | 81 | 1022.5 |
| 20260902190052 | 67 | 150 | 0.0 | 4.0 | 0.00 | 0.01 | 0.01 | 81 | 1022.5 |
| 20260902184539 | 67 | 125 | 0.0 | 4.0 | 0.00 | 0.01 | 0.01 | 80 | 1022.5 |
| 20260902183041 | 67 | 269 | 0.0 | 4.0 | 0.00 | 0.01 | 0.01 | 79 | 1022.3 |
| 20260902181539 | 68 | 321 | 2.0 | 6.0 | 0.00 | 0.01 | 0.01 | 78 | 1022.1 |
| 20260902180040 | 68 | 288 | 0.0 | 3.0 | 0.00 | 0.01 | 0.01 | 76 | 1022.4 |
| 20260902174537 | 68 | 152 | 0.0 | 4.0 | 0.00 | 0.01 | 0.01 | 78 | 1022.6 |
| 20260902173040 | 67 | 82 | 0.0 | 5.0 | 0.00 | 0.01 | 0.01 | 78 | 1022.4 |
| 20260902171549 | 68 | 155 | 1.0 | 4.0 | 0.00 | 0.01 | 0.01 | 77 | 1022.5 |
| 20260902170034 | 68 | 34 | 0.0 | 5.0 | 0.00 | 0.01 | 0.01 | 77 | 1022.8 |
| 20260902164532 | 68 | 13 | 0.0 | 7.0 | 0.00 | 0.02 | 0.01 | 80 | 1022.7 |
| 20260902163031 | 67 | 358 | 2.0 | 7.0 | 0.00 | 0.02 | 0.01 | 78 | 1022.9 |
| 20260902161536 | 67 | 318 | 0.0 | 5.0 | 0.00 | 0.02 | 0.01 | 80 | 1023.0 |
| 20260902160027 | 67 | 221 | 0.0 | 3.0 | 0.00 | 0.02 | 0.01 | 82 | 1023.2 |
| 20260902154532 | 66 | 132 | 0.0 | 6.0 | 0.00 | 0.02 | 0.01 | 82 | 1023.6 |
| 20260902153024 | 66 | 291 | 0.0 | 2.0 | 0.00 | 0.02 | 0.01 | 83 | 1023.6 |
| 20260902151524 | 65 | 10 | 0.0 | 4.0 | 0.00 | 0.02 | 0.01 | 84 | 1023.5 |
| 20260902150019 | 65 | 141 | 0.0 | 5.0 | 0.00 | 0.02 | 0.01 | 85 | 1023.6 |
| 20260902144521 | 64 | 91 | 0.0 | 2.0 | 0.00 | 0.02 | 0.01 | 87 | 1023.8 |
| 20260902143014 | 64 | 84 | 0.0 | 2.0 | 0.00 | 0.02 | 0.01 | 87 | 1023.5 |
| 20260902141513 | 64 | 228 | 0.0 | 3.0 | 0.00 | 0.02 | 0.01 | 88 | 1023.2 |
| 20260902140011 | 64 | 298 | 0.0 | 5.0 | 0.00 | 0.02 | 0.01 | 89 | 1023.0 |
| 20260902134510 | 64 | 297 | 1.0 | 8.0 | 0.00 | 0.06 | 0.01 | 92 | 1022.8 |
| 20260902133006 | 62 | 121 | 1.0 | 6.0 | 0.00 | 0.06 | 0.01 | 94 | 1022.7 |
| 20260902131503 | 62 | 120 | 0.0 | 3.0 | 0.00 | 0.06 | 0.01 | 94 | 1022.8 |
| 20260902130002 | 61 | 154 | 0.0 | 3.0 | 0.00 | 0.06 | 0.01 | 95 | 1023.1 |
| 20260902124600 | 61 | 118 | 0.0 | 2.0 | 0.00 | 0.14 | 0.01 | 95 | 1023.0 |
| 20260902123101 | 60 | 148 | 0.0 | 0.0 | 0.00 | 0.14 | 0.01 | 96 | 1022.8 |
| 20260902121559 | 60 | 148 | 0.0 | 0.0 | 0.00 | 0.14 | 0.01 | 96 | 1022.9 |
| 20260902120059 | 59 | 148 | 0.0 | 1.0 | 0.00 | 0.14 | 0.01 | 96 | 1023.1 |
| 20260902114556 | 59 | 97 | 0.0 | 0.0 | 0.00 | 0.28 | 0.01 | 97 | 1023.1 |
| 20260902113059 | 59 | 53 | 0.0 | 0.0 | 0.00 | 0.28 | 0.01 | 97 | 1023.1 |
| 20260902111554 | 59 | 86 | 0.0 | 0.0 | 0.00 | 0.28 | 0.01 | 97 | 1022.8 |
| 20260902110053 | 59 | 86 | 0.0 | 1.0 | 0.00 | 0.28 | 0.01 | 97 | 1022.7 |
| 20260902104551 | 59 | 145 | 0.0 | 0.0 | 0.00 | 0.28 | 0.01 | 97 | 1022.5 |
| 20260902103049 | 59 | 158 | 0.0 | 0.0 | 0.00 | 0.28 | 0.01 | 97 | 1022.3 |
| 20260902101547 | 59 | 158 | 0.0 | 0.0 | 0.00 | 0.28 | 0.01 | 97 | 1022.2 |
| 20260902100047 | 59 | 158 | 0.0 | 1.0 | 0.00 | 0.28 | 0.01 | 97 | 1022.1 |
| 20260902094549 | 59 | 12 | 0.0 | 0.0 | 0.00 | 0.28 | 0.01 | 97 | 1021.9 |
| 20260902093046 | 59 | 15 | 0.0 | 0.0 | 0.00 | 0.28 | 0.01 | 97 | 1022.0 |
| 20260902091548 | 59 | 15 | 0.0 | 0.0 | 0.00 | 0.28 | 0.01 | 97 | 1022.1 |
| 20260902090043 | 59 | 15 | 0.0 | 0.0 | 0.00 | 0.28 | 0.01 | 97 | 1022.0 |
| 20260902084542 | 59 | 15 | 0.0 | 0.0 | 0.00 | 0.28 | 0.01 | 97 | 1021.9 |
| 20260902083042 | 60 | 15 | 0.0 | 0.0 | 0.00 | 0.28 | 0.01 | 96 | 1021.8 |
| 20260902081544 | 60 | 15 | 0.0 | 0.0 | 0.01 | 0.28 | 0.01 | 96 | 1022.0 |
| 20260902080040 | 60 | 15 | 0.0 | 0.0 | 0.01 | 0.28 | 0.01 | 96 | 1022.1 |
| 20260902074552 | 60 | 15 | 0.0 | 0.0 | 0.01 | 0.28 | 0.01 | 96 | 1022.1 |
| 20260902073039 | 60 | 15 | 0.0 | 0.0 | 0.01 | 0.28 | 0.01 | 96 | 1022.2 |
| 20260902071538 | 60 | 39 | 0.0 | 0.0 | 0.00 | 0.28 | 0.00 | 96 | 1022.2 |
| 20260902070038 | 60 | 40 | 0.0 | 0.0 | 0.00 | 0.28 | 0.00 | 96 | 1021.9 |
| 20260902064536 | 60 | 77 | 0.0 | 0.0 | 0.00 | 0.28 | 0.00 | 96 | 1021.9 |
| 20260902063054 | 60 | 76 | 0.0 | 0.0 | 0.00 | 0.28 | 0.00 | 96 | 1021.8 |
| 20260902061531 | 60 | 77 | 0.0 | 0.0 | 0.00 | 0.28 | 0.00 | 95 | 1021.8 |
| 20260902060029 | 60 | 77 | 0.0 | 0.0 | 0.00 | 0.28 | 0.00 | 95 | 1021.7 |
| 20260902054533 | 60 | 77 | 0.0 | 0.0 | 0.00 | 0.00 | 0.00 | 95 | 1021.6 |
| 20260902053029 | 60 | 79 | 0.0 | 0.0 | 0.00 | 0.28 | 0.00 | 95 | 1021.5 |
| 20260902051537 | 60 | 80 | 0.0 | 0.0 | 0.00 | 0.28 | 0.00 | 94 | 1021.5 |
| 20260902050029 | 60 | 91 | 0.0 | 0.0 | 0.00 | 0.28 | 0.00 | 94 | 1021.3 |
| 20260902044521 | 60 | 92 | 0.0 | 0.0 | 0.00 | 0.28 | 0.00 | 94 | 1021.0 |
| 20260902043017 | 60 | 92 | 0.0 | 0.0 | 0.00 | 0.28 | 0.00 | 93 | 1020.8 |
| 20260902041514 | 60 | 95 | 0.0 | 1.0 | 0.00 | 0.28 | 0.00 | 94 | 1020.4 |
| 20260902040015 | 60 | 116 | 0.0 | 0.0 | 0.00 | 0.28 | 0.00 | 94 | 1020.3 |
| 20260902034512 | 60 | 115 | 0.0 | 0.0 | 0.00 | 0.28 | 0.28 | 94 | 1020.3 |
| 20260902033012 | 60 | 115 | 0.0 | 0.0 | 0.00 | 0.28 | 0.28 | 94 | 1020.3 |
| 20260902031511 | 60 | 115 | 0.0 | 0.0 | 0.00 | 0.28 | 0.28 | 94 | 1020.3 |